Погода в Гранд Бэй

Маврикий     20°00′44″S   57°35′10″E
темп.,
°C
ветер,
м/с
пор.,
м/с
влажн.,
%
обл.,
%
осадки,
мм/ч
давл.,
гПа
погр.,
м
19 апреля, пн
пн1901:00+26вюв8107942 0.3 1017809
04:00+26вюв79818 0.4 1016720
07:00+26вюв6882100 0.1 1017744
10:00+27в7875100 0.2 1018911
13:00+27в78725 0.0 1015859
16:00+28вюв68740 0.0 1014719
19:00+27вюв68791 0.0 1016691
22:00+26вюв68810 0.1 1017670
20 апреля, вт
вт2001:00+26вюв678314 0.0 1016609
04:00+26вюв568415 0.0 1014571
07:00+26вюв458212 0.0 1016555
10:00+27в447734 0.1 1016697
13:00+27всв4478100 1.1 1014521
16:00+27вюв337763 2.8 1014338
19:00+27юв56778 0.8 1015668
22:00+26юв5779100 0.8 1016673
21 апреля, ср
ср2101:00+26вюв5780100 0.0 1015702
04:00+26вюв6780100 0.0 1014699
07:00+26вюв6777100 0.0 1015749
10:00+27вюв7878100 0.1 1016865
13:00+27в7769100 0.3 1015827
16:00+27вюв7777100 0.3 1014824
19:00+26вюв7881100 0.0 1016741
22:00+26в6779100 0.1 1017737
22 апреля, чт
чт2201:00+26в6781100 0.0 1016632
04:00+26в5780100 0.1 1014723
07:00+26в6776100 0.0 1016820
10:00+27в777195 0.0 1017811
13:00+27в7775100 0.0 1015751
16:00+27в777998 0.1 1014746
19:00+26вюв6782100 2.4 1016568
22:00+27вюв6777100 3.4 1016681
23 апреля, пт
пт2301:00+26вюв6880100 0.4 1015655
04:00+26в7880100 0.6 1014711
07:00+26в7881100 2.4 1015691
10:00+26в6781100 4.6 1016644
13:00+26вюв688099 3.9 1014500
16:00+26юв7975100 6.6 1014656
19:00+25юв81178100 0.0 1015662
22:00+26вюв81077100 0.0 1016726